Location: Colonia Mina de C?rbuni
(46.1667°N, 22.7167°E)
Time: 06:12:21
(UTC+00:00)

Courier 1B - Pass Details

Date: 27 April 2024
Orbit: 962 x 1208 km, 28.3° (Epoch: 26 May)

Event Time Altitude Azimuth Distance (km) Brightness Sun altitude
Rises 00:11:55 0° 244° (WSW) 4,078 - -25.4°
Reaches altitude 10° 00:15:46 10° 227° (SW) 3,085 - -25.1°
Maximum altitude 00:20:41 19° 187° (S) 2,451 - -24.7°
Exits shadow 00:25:26 10° 146° (SE) 2,971 9.8 -24.2°
Drops below altitude 10° 00:25:28 10° 146° (SE) 2,978 9.8 -24.2°
Sets 00:29:06 0° 128° (SE) 3,887 10.6 -23.9°
